Time,TemperatureF,DewpointF,PressureIn,WindDirection,WindDirectionDegrees,WindSpeedMPH,WindSpeedGustMPH,Humidity,HourlyPrecipIn,Conditions,Clouds,dailyrainin,SoftwareType,DateUTC
2013-08-05 00:09:00,56.5,52.0,30.04,WSW,258,0.0,0.0,85,0.00,,,0.00,Wunderground v.1.15,2013-08-05 04:09:00,
2013-08-05 00:13:00,56.4,52.0,30.04,WSW,258,1.0,2.0,85,0.00,,,0.00,weatherlink.com 1.10,2013-08-05 04:13:00,
2013-08-05 00:28:00,56.0,52.0,30.05,WSW,258,0.0,1.0,85,0.00,,,0.00,weatherlink.com 1.10,2013-08-05 04:28:00,
2013-08-05 00:40:00,55.6,51.5,30.05,WSW,258,0.0,0.0,86,0.00,,,0.00,Wunderground v.1.15,2013-08-05 04:40:00,
2013-08-05 00:58:00,55.1,51.0,30.05,WSW,258,0.0,2.0,87,0.00,,,0.00,weatherlink.com 1.10,2013-08-05 04:58:00,
2013-08-05 01:10:00,55.0,51.2,30.05,WSW,258,0.0,1.0,87,0.00,,,0.00,Wunderground v.1.15,2013-08-05 05:10:00,
2013-08-05 01:28:00,54.9,51.0,30.05,SSW,213,0.0,2.0,87,0.00,,,0.00,weatherlink.com 1.10,2013-08-05 05:28:00,
2013-08-05 01:40:00,54.9,51.1,30.05,SSW,213,0.0,1.0,87,0.00,,,0.00,Wunderground v.1.15,2013-08-05 05:40:00,
2013-08-05 01:58:00,54.9,51.0,30.05,SSW,213,0.0,1.0,86,0.00,,,0.00,weatherlink.com 1.10,2013-08-05 05:58:00,
2013-08-05 02:10:00,54.9,50.8,30.04,SSW,213,0.0,1.0,86,0.00,,,0.00,Wunderground v.1.15,2013-08-05 06:10:00,
2013-08-05 02:27:00,54.8,51.0,30.05,SSW,213,0.0,2.0,87,0.00,,,0.00,weatherlink.com 1.10,2013-08-05 06:27:00,
2013-08-05 02:40:00,54.9,50.8,30.04,SSW,202,1.0,1.0,86,0.00,,,0.00,Wunderground v.1.15,2013-08-05 06:40:00,
2013-08-05 02:58:00,54.8,51.0,30.05,SSW,202,0.0,1.0,86,0.00,,,0.00,weatherlink.com 1.10,2013-08-05 06:58:00,
2013-08-05 03:10:00,54.6,50.8,30.05,SSW,202,0.0,1.0,87,0.00,,,0.00,Wunderground v.1.15,2013-08-05 07:10:00,
2013-08-05 03:28:00,54.2,51.0,30.05,SSW,202,0.0,1.0,88,0.00,,,0.00,weatherlink.com 1.10,2013-08-05 07:28:00,
2013-08-05 03:40:00,53.7,50.5,30.05,SSW,202,0.0,1.0,89,0.00,,,0.00,Wunderground v.1.15,2013-08-05 07:40:00,
2013-08-05 03:58:00,53.0,50.0,30.05,SSW,202,0.0,1.0,90,0.00,,,0.00,weatherlink.com 1.10,2013-08-05 07:58:00,
2013-08-05 04:10:00,52.8,50.2,30.06,SSW,202,0.0,1.0,91,0.00,,,0.00,Wunderground v.1.15,2013-08-05 08:10:00,
2013-08-05 04:29:00,52.2,50.0,30.06,SSW,202,0.0,2.0,91,0.00,,,0.00,weatherlink.com 1.10,2013-08-05 08:29:00,
2013-08-05 04:40:00,51.9,49.4,30.06,SSW,202,0.0,2.0,91,0.00,,,0.00,Wunderground v.1.15,2013-08-05 08:40:00,
2013-08-05 05:10:00,51.7,49.5,30.07,SSW,202,0.0,1.0,92,0.00,,,0.00,Wunderground v.1.15,2013-08-05 09:10:00,
2013-08-05 05:28:00,51.5,49.0,30.07,SSW,202,1.0,3.0,92,0.00,,,0.00,weatherlink.com 1.10,2013-08-05 09:28:00,
2013-08-05 05:40:00,51.4,49.2,30.08,SSW,202,1.0,1.0,92,0.00,,,0.00,Wunderground v.1.15,2013-08-05 09:40:00,
2013-08-05 06:10:00,51.0,49.0,30.08,SSW,202,0.0,1.0,93,0.00,,,0.00,Wunderground v.1.15,2013-08-05 10:10:00,
2013-08-05 06:43:00,51.5,50.0,30.09,SSW,202,0.0,3.0,93,0.00,,,0.00,weatherlink.com 1.10,2013-08-05 10:43:00,
2013-08-05 06:58:00,52.4,51.0,30.09,SSW,202,0.0,2.0,93,0.00,,,0.00,weatherlink.com 1.10,2013-08-05 10:58:00,
2013-08-05 07:40:00,55.7,52.8,30.09,SSW,202,0.0,1.0,90,0.00,,,0.00,Wunderground v.1.15,2013-08-05 11:40:00,
2013-08-05 07:59:00,57.1,54.0,30.09,SSW,209,0.0,4.0,88,0.00,,,0.00,weatherlink.com 1.10,2013-08-05 11:59:00,
2013-08-05 08:10:00,57.8,54.0,30.09,South,169,1.0,1.0,87,0.00,,,0.00,Wunderground v.1.15,2013-08-05 12:10:00,
2013-08-05 08:29:00,58.8,55.0,30.10,SSW,205,2.0,7.0,86,0.00,,,0.00,weatherlink.com 1.10,2013-08-05 12:29:00,
2013-08-05 08:39:00,59.6,55.1,30.10,West,261,2.0,2.0,85,0.00,,,0.00,Wunderground v.1.15,2013-08-05 12:39:00,
2013-08-05 08:59:00,60.9,56.0,30.11,SSW,206,1.0,5.0,84,0.00,,,0.00,weatherlink.com 1.10,2013-08-05 12:59:00,
2013-08-05 09:10:00,61.6,56.4,30.10,WNW,284,2.0,2.0,83,0.00,,,0.00,Wunderground v.1.15,2013-08-05 13:10:00,
2013-08-05 09:40:00,63.1,57.2,30.10,WNW,296,2.0,3.0,81,0.00,,,0.00,Wunderground v.1.15,2013-08-05 13:40:00,
2013-08-05 09:59:00,64.0,58.0,30.10,West,274,3.0,7.0,80,0.00,,,0.00,weatherlink.com 1.10,2013-08-05 13:59:00,
2013-08-05 10:10:00,64.1,57.8,30.10,WSW,257,4.0,4.0,80,0.00,,,0.00,Wunderground v.1.15,2013-08-05 14:10:00,
2013-08-05 10:29:00,65.2,58.0,30.09,NW,325,1.0,10.0,78,0.00,,,0.00,weatherlink.com 1.10,2013-08-05 14:29:00,
2013-08-05 10:40:00,65.8,55.7,30.10,South,177,3.0,6.0,70,0.00,,,0.00,Wunderground v.1.15,2013-08-05 14:40:00,
2013-08-05 10:45:00,66.1,56.0,30.10,SW,232,0.0,6.0,69,0.00,,,0.00,weatherlink.com 1.10,2013-08-05 14:45:00,
2013-08-05 10:59:00,67.3,58.0,30.09,SSE,157,1.0,6.0,73,0.00,,,0.00,weatherlink.com 1.10,2013-08-05 14:59:00,
2013-08-05 11:10:00,68.0,57.4,30.09,ENE,69,2.0,2.0,69,0.00,,,0.00,Wunderground v.1.15,2013-08-05 15:10:00,
2013-08-05 11:29:00,68.8,55.0,30.09,East,96,1.0,8.0,61,0.00,,,0.00,weatherlink.com 1.10,2013-08-05 15:29:00,
2013-08-05 11:40:00,69.0,55.4,30.08,SW,227,2.0,4.0,62,0.00,,,0.00,Wunderground v.1.15,2013-08-05 15:40:00,
2013-08-05 11:45:00,68.8,54.0,30.08,NW,313,0.0,6.0,59,0.00,,,0.00,weatherlink.com 1.10,2013-08-05 15:45:00,
2013-08-05 12:10:00,69.3,52.9,30.08,SW,219,2.0,5.0,56,0.00,,,0.00,Wunderground v.1.15,2013-08-05 16:10:00,
2013-08-05 12:30:00,70.6,51.0,30.07,North,355,3.0,8.0,50,0.00,,,0.00,weatherlink.com 1.10,2013-08-05 16:30:00,
2013-08-05 12:40:00,70.1,53.2,30.07,SW,232,2.0,2.0,55,0.00,,,0.00,Wunderground v.1.15,2013-08-05 16:40:00,
2013-08-05 12:44:00,69.8,51.0,30.07,SW,224,1.0,8.0,51,0.00,,,0.00,weatherlink.com 1.10,2013-08-05 16:44:00,
2013-08-05 12:59:00,70.1,51.0,30.06,SW,225,3.0,5.0,51,0.00,,,0.00,weatherlink.com 1.10,2013-08-05 16:59:00,
2013-08-05 13:10:00,70.6,51.1,30.06,South,176,1.0,1.0,50,0.00,,,0.00,Wunderground v.1.15,2013-08-05 17:10:00,
2013-08-05 13:30:00,73.3,52.0,30.05,WNW,284,2.0,6.0,47,0.00,,,0.00,weatherlink.com 1.10,2013-08-05 17:30:00,
2013-08-05 13:40:00,71.0,52.5,30.05,North,355,3.0,3.0,52,0.00,,,0.00,Wunderground v.1.15,2013-08-05 17:40:00,
2013-08-05 14:00:00,73.6,51.0,30.05,South,171,4.0,5.0,45,0.00,,,0.00,weatherlink.com 1.10,2013-08-05 18:00:00,
2013-08-05 14:10:00,73.1,51.7,30.04,ESE,108,2.0,2.0,47,0.00,,,0.00,Wunderground v.1.15,2013-08-05 18:10:00,
2013-08-05 14:15:00,72.7,51.0,30.05,SSW,192,1.0,7.0,47,0.00,,,0.00,weatherlink.com 1.10,2013-08-05 18:15:00,
2013-08-05 14:30:00,71.3,52.0,30.04,NW,305,2.0,4.0,51,0.00,,,0.00,weatherlink.com 1.10,2013-08-05 18:30:00,
2013-08-05 14:40:00,72.1,50.8,30.04,SE,127,2.0,2.0,47,0.00,,,0.00,Wunderground v.1.15,2013-08-05 18:40:00,
2013-08-05 14:45:00,72.5,51.0,30.04,NE,44,1.0,5.0,47,0.00,,,0.00,weatherlink.com 1.10,2013-08-05 18:45:00,
2013-08-05 15:00:00,75.0,52.0,30.04,WNW,284,2.0,6.0,44,0.00,,,0.00,weatherlink.com 1.10,2013-08-05 19:00:00,
2013-08-05 15:10:00,74.1,51.4,30.04,NW,320,2.0,2.0,45,0.00,,,0.00,Wunderground v.1.15,2013-08-05 19:10:00,
2013-08-05 15:15:00,74.5,54.0,30.03,West,273,2.0,6.0,49,0.00,,,0.00,weatherlink.com 1.10,2013-08-05 19:15:00,
2013-08-05 15:30:00,73.7,51.0,30.04,West,259,1.0,5.0,45,0.00,,,0.00,weatherlink.com 1.10,2013-08-05 19:30:00,
2013-08-05 15:40:00,74.1,50.8,30.03,NW,322,1.0,1.0,44,0.00,,,0.00,Wunderground v.1.15,2013-08-05 19:40:00,
2013-08-05 15:45:00,74.4,50.0,30.03,East,87,0.0,5.0,43,0.00,,,0.00,weatherlink.com 1.10,2013-08-05 19:45:00,
2013-08-05 16:10:00,74.2,49.0,30.02,SW,230,2.0,2.0,41,0.00,,,0.00,Wunderground v.1.15,2013-08-05 20:10:00,
2013-08-05 16:15:00,74.4,51.0,30.02,West,276,0.0,5.0,44,0.00,,,0.00,weatherlink.com 1.10,2013-08-05 20:15:00,
2013-08-05 16:30:00,74.0,52.0,30.02,WNW,298,2.0,7.0,47,0.00,,,0.00,weatherlink.com 1.10,2013-08-05 20:30:00,
2013-08-05 16:40:00,74.1,52.0,30.02,NNW,338,3.0,4.0,46,0.00,,,0.00,Wunderground v.1.15,2013-08-05 20:40:00,
2013-08-05 16:45:00,74.1,53.0,30.02,WNW,298,1.0,5.0,48,0.00,,,0.00,weatherlink.com 1.10,2013-08-05 20:45:00,
2013-08-05 17:15:00,73.9,51.0,30.02,NW,322,1.0,5.0,45,0.00,,,0.00,weatherlink.com 1.10,2013-08-05 21:15:00,
2013-08-05 17:30:00,76.1,53.0,30.02,North,355,0.0,3.0,44,0.00,,,0.00,weatherlink.com 1.10,2013-08-05 21:30:00,
2013-08-05 17:45:00,75.6,52.0,30.02,WNW,284,0.0,4.0,44,0.00,,,0.00,weatherlink.com 1.10,2013-08-05 21:45:00,
2013-08-05 18:00:00,74.2,52.0,30.01,SSE,154,1.0,3.0,46,0.00,,,0.00,weatherlink.com 1.10,2013-08-05 22:00:00,
2013-08-05 18:10:00,73.6,51.5,30.01,SSE,151,1.0,1.0,46,0.00,,,0.00,Wunderground v.1.15,2013-08-05 22:10:00,
2013-08-05 18:40:00,74.6,50.6,30.01,NW,305,0.0,1.0,43,0.00,,,0.00,Wunderground v.1.15,2013-08-05 22:40:00,
2013-08-05 18:45:00,74.1,51.0,30.01,NW,305,0.0,2.0,44,0.00,,,0.00,weatherlink.com 1.10,2013-08-05 22:45:00,
2013-08-05 19:00:00,73.5,53.0,30.01,NW,305,1.0,3.0,49,0.00,,,0.00,weatherlink.com 1.10,2013-08-05 23:00:00,
2013-08-05 19:10:00,74.9,52.1,30.01,NW,305,0.0,1.0,45,0.00,,,0.00,Wunderground v.1.15,2013-08-05 23:10:00,
2013-08-05 19:15:00,75.5,53.0,30.01,NW,305,0.0,0.0,45,0.00,,,0.00,weatherlink.com 1.10,2013-08-05 23:15:00,
2013-08-05 19:45:00,71.7,56.0,30.01,NW,305,0.0,1.0,58,0.00,,,0.00,weatherlink.com 1.10,2013-08-05 23:45:00,
2013-08-05 20:00:00,70.2,55.0,30.01,NW,305,0.0,1.0,58,0.00,,,0.00,weatherlink.com 1.10,2013-08-06 00:00:00,
2013-08-05 20:10:00,69.2,56.1,30.01,NW,305,0.0,1.0,63,0.00,,,0.00,Wunderground v.1.15,2013-08-06 00:10:00,
2013-08-05 20:15:00,68.7,55.0,30.01,NW,305,0.0,0.0,62,0.00,,,0.00,weatherlink.com 1.10,2013-08-06 00:15:00,
2013-08-05 20:30:00,67.3,55.0,30.01,NW,305,0.0,0.0,66,0.00,,,0.00,weatherlink.com 1.10,2013-08-06 00:30:00,
2013-08-05 20:40:00,66.3,55.8,30.01,NW,305,0.0,1.0,69,0.00,,,0.00,Wunderground v.1.15,2013-08-06 00:40:00,
2013-08-05 20:45:00,65.3,56.0,30.01,NW,305,0.0,2.0,71,0.00,,,0.00,weatherlink.com 1.10,2013-08-06 00:45:00,
2013-08-05 21:00:00,63.8,55.0,30.01,NW,305,0.0,0.0,74,0.00,,,0.00,weatherlink.com 1.10,2013-08-06 01:00:00,
2013-08-05 21:10:00,62.7,55.4,30.01,ENE,68,0.0,1.0,77,0.00,,,0.00,Wunderground v.1.15,2013-08-06 01:10:00,
2013-08-05 21:16:00,62.3,55.0,30.01,ENE,68,0.0,1.0,77,0.00,,,0.00,weatherlink.com 1.10,2013-08-06 01:16:00,
2013-08-05 21:31:00,61.4,55.0,30.02,ENE,68,0.0,1.0,79,0.00,,,0.00,weatherlink.com 1.10,2013-08-06 01:31:00,
2013-08-05 21:45:00,60.7,55.0,30.02,ENE,68,0.0,1.0,81,0.00,,,0.00,weatherlink.com 1.10,2013-08-06 01:45:00,
2013-08-05 22:00:00,60.4,55.0,30.02,ENE,68,0.0,0.0,81,0.00,,,0.00,weatherlink.com 1.10,2013-08-06 02:00:00,
2013-08-05 22:10:00,60.4,54.5,30.01,ENE,68,0.0,1.0,81,0.00,,,0.00,Wunderground v.1.15,2013-08-06 02:10:00,
2013-08-05 22:15:00,60.4,54.0,30.01,ENE,68,0.0,1.0,80,0.00,,,0.00,weatherlink.com 1.10,2013-08-06 02:15:00,
2013-08-05 22:30:00,59.8,54.0,30.01,ENE,74,0.0,1.0,82,0.00,,,0.00,weatherlink.com 1.10,2013-08-06 02:30:00,
2013-08-05 22:40:00,59.0,53.8,30.00,ENE,74,0.0,2.0,83,0.00,,,0.00,Wunderground v.1.15,2013-08-06 02:40:00,
2013-08-05 22:45:00,59.0,54.0,30.01,ENE,74,0.0,3.0,83,0.00,,,0.00,weatherlink.com 1.10,2013-08-06 02:45:00,
2013-08-05 23:00:00,58.7,54.0,30.00,ENE,74,0.0,1.0,85,0.00,,,0.00,weatherlink.com 1.10,2013-08-06 03:00:00,
2013-08-05 23:15:00,58.2,54.0,30.00,ESE,120,1.0,4.0,87,0.00,,,0.00,weatherlink.com 1.10,2013-08-06 03:15:00,
2013-08-05 23:30:00,58.0,54.0,30.00,ESE,121,0.0,3.0,87,0.00,,,0.00,weatherlink.com 1.10,2013-08-06 03:30:00,
2013-08-05 23:45:00,57.7,54.0,30.00,SSW,205,0.0,2.0,88,0.00,,,0.00,weatherlink.com 1.10,2013-08-06 03:45:00,